{"data":{"norad_id":54120,"epoch":"2026-05-25T04:18:25.464096Z","epoch_age_seconds":63558,"freshness":"FRESH","line1":"1 54120U 22138H   26145.17946139  .00000109  00000+0  23961-3 0  9999","line2":"2 54120  87.9158 309.5398 0001801  85.0873 275.0466 13.19726480173798","mean_motion":13.1972648,"eccentricity":0.0001801,"inclination_deg":87.9158,"raan_deg":309.5398,"arg_perigee_deg":85.0873,"mean_anomaly_deg":275.0466,"bstar":0.00023961,"rev_number":17379,"period_min":109.11351873458,"perigee_km":1184.4026382634,"apogee_km":1187.1271557267,"semimajor_km":7563.901896995,"source":"CELESTRAK","updated_at":"2026-05-25T13:38:22.585727Z"}}